Location: Unspecified
(0.0000°N, 0.0000°E)
Time: 23:38:36

N. Korean satellite - Pass Details

Date: 05 January 2018
Orbit: 460 x 512 km, 97.2° (Epoch: 22 March)

Event Time Altitude Azimuth Distance (km) Brightness Sun altitude
Rises 18:41:23 0° 182° (S) 2,621 10.6 -8.3°
Reaches altitude 10° 18:43:34 10° 191° (S) 1,735 9.8 -8.8°
Maximum altitude 18:47:03 37° 259° (W) 806 8.4 -9.6°
Drops below altitude 10° 18:50:31 10° 327° (NNW) 1,727 9.5 -10.4°
Sets 18:52:42 0° 336° (NNW) 2,607 10.3 -10.9°
